Time,TemperatureF,DewpointF,PressureIn,WindDirection,WindDirectionDegrees,WindSpeedMPH,WindSpeedGustMPH,Humidity,HourlyPrecipIn,Conditions,Clouds,dailyrainin,SoftwareType,DateUTC
2013-11-15 00:01:00,38.1,22.5,30.25,South,175,2.0,2.0,53,0.00,,,0.00,VWS V14.01,2013-11-15 05:01:00,
2013-11-15 00:06:00,37.9,22.3,30.25,SSE,156,0.0,0.0,53,0.00,,,0.00,VWS V14.01,2013-11-15 05:06:00,
2013-11-15 00:11:00,37.6,22.5,30.25,SSW,200,0.0,0.0,54,0.00,,,0.00,VWS V14.01,2013-11-15 05:11:00,
2013-11-15 00:16:00,37.3,22.2,30.25,SSE,155,1.0,3.0,54,0.00,,,0.00,VWS V14.01,2013-11-15 05:16:00,
2013-11-15 00:21:00,37.2,22.5,30.25,SSE,166,1.0,2.0,55,0.00,,,0.00,VWS V14.01,2013-11-15 05:21:00,
2013-11-15 00:26:00,37.0,22.4,30.25,SSE,165,0.0,0.0,55,0.00,,,0.00,VWS V14.01,2013-11-15 05:26:00,
2013-11-15 00:31:00,36.9,22.3,30.25,SSW,197,2.0,2.0,55,0.00,,,0.00,VWS V14.01,2013-11-15 05:31:00,
2013-11-15 00:36:00,36.8,22.2,30.25,SSW,203,2.0,3.0,55,0.00,,,0.00,VWS V14.01,2013-11-15 05:36:00,
2013-11-15 00:41:00,37.1,22.4,30.25,SSW,212,1.0,2.0,55,0.00,,,0.00,VWS V14.01,2013-11-15 05:41:00,
2013-11-15 00:46:00,37.2,22.5,30.25,SSE,155,3.0,4.0,55,0.00,,,0.00,VWS V14.01,2013-11-15 05:46:00,
2013-11-15 00:51:00,37.3,22.6,30.24,SSW,206,2.0,2.0,55,0.00,,,0.00,VWS V14.01,2013-11-15 05:51:00,
2013-11-15 00:56:00,37.3,22.6,30.24,SSW,193,3.0,4.0,55,0.00,,,0.00,VWS V14.01,2013-11-15 05:56:00,
2013-11-15 01:01:00,37.3,22.6,30.24,SSE,165,1.0,2.0,55,0.00,,,0.00,VWS V14.01,2013-11-15 06:01:00,
2013-11-15 01:06:00,37.1,22.4,30.24,SSE,158,1.0,2.0,55,0.00,,,0.00,VWS V14.01,2013-11-15 06:06:00,
2013-11-15 01:11:00,36.8,22.2,30.24,SSE,148,1.0,1.0,55,0.00,,,0.00,VWS V14.01,2013-11-15 06:11:00,
2013-11-15 01:16:00,36.5,22.3,30.24,SSE,165,1.0,2.0,56,0.00,,,0.00,VWS V14.01,2013-11-15 06:16:00,
2013-11-15 01:21:00,36.3,22.1,30.23,South,173,2.0,2.0,56,0.00,,,0.00,VWS V14.01,2013-11-15 06:21:00,
2013-11-15 01:26:00,36.3,22.5,30.23,South,187,1.0,1.0,57,0.00,,,0.00,VWS V14.01,2013-11-15 06:26:00,
2013-11-15 01:31:00,36.1,22.4,30.23,SSE,153,1.0,1.0,57,0.00,,,0.00,VWS V14.01,2013-11-15 06:31:00,
2013-11-15 01:36:00,35.8,22.1,30.23,SSW,197,0.0,1.0,57,0.00,,,0.00,VWS V14.01,2013-11-15 06:36:00,
2013-11-15 01:41:00,35.6,22.3,30.22,SE,144,0.0,0.0,58,0.00,,,0.00,VWS V14.01,2013-11-15 06:41:00,
2013-11-15 01:46:00,35.2,22.3,30.22,SSE,156,0.0,0.0,59,0.00,,,0.00,VWS V14.01,2013-11-15 06:46:00,
2013-11-15 01:51:00,34.9,22.0,30.22,SSE,152,0.0,0.0,59,0.00,,,0.00,VWS V14.01,2013-11-15 06:51:00,
2013-11-15 01:56:00,34.8,22.3,30.22,SSW,204,1.0,2.0,60,0.00,,,0.00,VWS V14.01,2013-11-15 06:56:00,
2013-11-15 02:01:00,35.1,22.2,30.22,SSW,194,1.0,2.0,59,0.00,,,0.00,VWS V14.01,2013-11-15 07:01:00,
2013-11-15 02:06:00,35.1,22.2,30.22,SSW,200,1.0,2.0,59,0.00,,,0.00,VWS V14.01,2013-11-15 07:06:00,
2013-11-15 02:11:00,35.3,22.0,30.23,SSE,150,2.0,2.0,58,0.00,,,0.00,VWS V14.01,2013-11-15 07:11:00,
2013-11-15 02:16:00,35.8,22.5,30.23,South,184,3.0,3.0,58,0.00,,,0.00,VWS V14.01,2013-11-15 07:16:00,
2013-11-15 02:21:00,35.6,22.3,30.23,SSE,164,0.0,1.0,58,0.00,,,0.00,VWS V14.01,2013-11-15 07:21:00,
2013-11-15 02:26:00,35.6,22.3,30.23,South,173,1.0,2.0,58,0.00,,,0.00,VWS V14.01,2013-11-15 07:26:00,
2013-11-15 02:31:00,35.9,22.2,30.24,SW,225,3.0,3.0,57,0.00,,,0.00,VWS V14.01,2013-11-15 07:31:00,
2013-11-15 02:36:00,36.1,21.9,30.24,SW,215,2.0,3.0,56,0.00,,,0.00,VWS V14.01,2013-11-15 07:36:00,
2013-11-15 02:41:00,36.5,21.9,30.24,SSW,200,1.0,2.0,55,0.00,,,0.00,VWS V14.01,2013-11-15 07:41:00,
2013-11-15 02:46:00,36.8,21.7,30.24,South,173,2.0,2.0,54,0.00,,,0.00,VWS V14.01,2013-11-15 07:46:00,
2013-11-15 02:51:00,37.1,22.0,30.24,South,176,0.0,1.0,54,0.00,,,0.00,VWS V14.01,2013-11-15 07:51:00,
2013-11-15 02:56:00,37.1,22.0,30.24,South,188,1.0,2.0,54,0.00,,,0.00,VWS V14.01,2013-11-15 07:56:00,
2013-11-15 03:01:00,37.1,21.6,30.24,SSE,153,1.0,3.0,53,0.00,,,0.00,VWS V14.01,2013-11-15 08:01:00,
2013-11-15 03:06:00,37.1,21.6,30.24,SSW,198,0.0,0.0,53,0.00,,,0.00,VWS V14.01,2013-11-15 08:06:00,
2013-11-15 03:11:00,36.9,21.8,30.24,SSW,193,1.0,1.0,54,0.00,,,0.00,VWS V14.01,2013-11-15 08:11:00,
2013-11-15 03:16:00,36.8,21.7,30.24,SSE,165,2.0,2.0,54,0.00,,,0.00,VWS V14.01,2013-11-15 08:16:00,
2013-11-15 03:21:00,37.0,21.5,30.24,SSE,166,1.0,2.0,53,0.00,,,0.00,VWS V14.01,2013-11-15 08:21:00,
2013-11-15 03:26:00,37.1,21.6,30.24,South,187,1.0,2.0,53,0.00,,,0.00,VWS V14.01,2013-11-15 08:26:00,
2013-11-15 03:31:00,37.2,21.7,30.23,SSE,163,1.0,1.0,53,0.00,,,0.00,VWS V14.01,2013-11-15 08:31:00,
2013-11-15 03:36:00,37.2,21.2,30.23,SE,141,1.0,1.0,52,0.00,,,0.00,VWS V14.01,2013-11-15 08:36:00,
2013-11-15 03:41:00,37.1,21.1,30.23,SSE,150,0.0,0.0,52,0.00,,,0.00,VWS V14.01,2013-11-15 08:41:00,
2013-11-15 03:46:00,37.0,21.5,30.23,SSE,152,0.0,0.0,53,0.00,,,0.00,VWS V14.01,2013-11-15 08:46:00,
2013-11-15 03:51:00,36.7,21.6,30.23,SSE,155,0.0,1.0,54,0.00,,,0.00,VWS V14.01,2013-11-15 08:51:00,
2013-11-15 03:56:00,36.5,21.5,30.23,SSE,152,1.0,2.0,54,0.00,,,0.00,VWS V14.01,2013-11-15 08:56:00,
2013-11-15 04:01:00,36.3,21.3,30.22,SSE,153,0.0,0.0,54,0.00,,,0.00,VWS V14.01,2013-11-15 09:01:00,
2013-11-15 04:06:00,36.3,21.3,30.22,SSE,148,1.0,1.0,54,0.00,,,0.00,VWS V14.01,2013-11-15 09:06:00,
2013-11-15 04:11:00,36.3,21.3,30.22,SSE,153,1.0,1.0,54,0.00,,,0.00,VWS V14.01,2013-11-15 09:11:00,
2013-11-15 04:16:00,36.3,21.3,30.22,SSE,153,0.0,1.0,54,0.00,,,0.00,VWS V14.01,2013-11-15 09:16:00,
2013-11-15 04:21:00,36.2,21.6,30.22,SSE,158,0.0,1.0,55,0.00,,,0.00,VWS V14.01,2013-11-15 09:21:00,
2013-11-15 04:26:00,36.1,21.5,30.22,SE,139,0.0,1.0,55,0.00,,,0.00,VWS V14.01,2013-11-15 09:26:00,
2013-11-15 04:31:00,36.0,21.4,30.22,SSW,193,1.0,1.0,55,0.00,,,0.00,VWS V14.01,2013-11-15 09:31:00,
2013-11-15 04:36:00,36.0,21.4,30.23,South,169,0.0,1.0,55,0.00,,,0.00,VWS V14.01,2013-11-15 09:36:00,
2013-11-15 04:41:00,36.1,21.5,30.23,SSW,192,0.0,1.0,55,0.00,,,0.00,VWS V14.01,2013-11-15 09:41:00,
2013-11-15 04:46:00,36.2,21.6,30.23,SSE,160,1.0,1.0,55,0.00,,,0.00,VWS V14.01,2013-11-15 09:46:00,
2013-11-15 04:51:00,36.1,21.9,30.23,SSE,150,0.0,0.0,56,0.00,,,0.00,VWS V14.01,2013-11-15 09:51:00,
2013-11-15 04:56:00,36.0,21.4,30.23,South,191,2.0,2.0,55,0.00,,,0.00,VWS V14.01,2013-11-15 09:56:00,
2013-11-15 05:01:00,36.2,21.6,30.23,South,170,0.0,1.0,55,0.00,,,0.00,VWS V14.01,2013-11-15 10:01:00,
2013-11-15 05:06:00,36.2,21.6,30.23,SSE,166,1.0,1.0,55,0.00,,,0.00,VWS V14.01,2013-11-15 10:06:00,
2013-11-15 05:11:00,36.1,21.5,30.23,SSE,164,1.0,1.0,55,0.00,,,0.00,VWS V14.01,2013-11-15 10:11:00,
2013-11-15 05:16:00,36.1,21.5,30.22,SSW,195,0.0,1.0,55,0.00,,,0.00,VWS V14.01,2013-11-15 10:16:00,
2013-11-15 05:21:00,36.3,21.7,30.23,SE,139,1.0,1.0,55,0.00,,,0.00,VWS V14.01,2013-11-15 10:21:00,
2013-11-15 05:26:00,36.3,21.7,30.23,SE,141,0.0,1.0,55,0.00,,,0.00,VWS V14.01,2013-11-15 10:26:00,
2013-11-15 05:31:00,36.4,21.8,30.23,SSE,165,1.0,1.0,55,0.00,,,0.00,VWS V14.01,2013-11-15 10:31:00,
2013-11-15 05:36:00,36.5,21.9,30.23,South,183,1.0,1.0,55,0.00,,,0.00,VWS V14.01,2013-11-15 10:36:00,
2013-11-15 05:41:00,36.7,21.6,30.24,South,190,2.0,2.0,54,0.00,,,0.00,VWS V14.01,2013-11-15 10:41:00,
2013-11-15 05:46:00,37.0,21.5,30.24,South,184,1.0,2.0,53,0.00,,,0.00,VWS V14.01,2013-11-15 10:46:00,
2013-11-15 05:51:00,37.3,21.3,30.24,SSE,150,1.0,2.0,52,0.00,,,0.00,VWS V14.01,2013-11-15 10:51:00,
2013-11-15 05:56:00,37.5,21.5,30.24,SSE,154,0.0,1.0,52,0.00,,,0.00,VWS V14.01,2013-11-15 10:56:00,
2013-11-15 06:01:00,37.5,21.5,30.24,SSE,160,0.0,0.0,52,0.00,,,0.00,VWS V14.01,2013-11-15 11:01:00,
2013-11-15 06:06:00,37.6,21.1,30.24,SSW,197,1.0,2.0,51,0.00,,,0.00,VWS V14.01,2013-11-15 11:06:00,
2013-11-15 06:11:00,37.7,21.2,30.24,SSW,210,0.0,1.0,51,0.00,,,0.00,VWS V14.01,2013-11-15 11:11:00,
2013-11-15 06:16:00,37.5,21.5,30.24,SSW,197,0.0,1.0,52,0.00,,,0.00,VWS V14.01,2013-11-15 11:16:00,
2013-11-15 06:21:00,37.3,21.3,30.24,SSE,159,0.0,0.0,52,0.00,,,0.00,VWS V14.01,2013-11-15 11:21:00,
2013-11-15 06:26:00,36.8,21.3,30.24,SSE,150,0.0,0.0,53,0.00,,,0.00,VWS V14.01,2013-11-15 11:26:00,
2013-11-15 06:31:00,36.1,21.5,30.24,SSE,148,0.0,0.0,55,0.00,,,0.00,VWS V14.01,2013-11-15 11:31:00,
2013-11-15 06:36:00,35.5,21.4,30.25,SSE,148,0.0,1.0,56,0.00,,,0.00,VWS V14.01,2013-11-15 11:36:00,
2013-11-15 06:41:00,35.6,21.5,30.24,SSE,152,0.0,1.0,56,0.00,,,0.00,VWS V14.01,2013-11-15 11:41:00,
2013-11-15 06:46:00,36.0,21.4,30.25,South,183,0.0,1.0,55,0.00,,,0.00,VWS V14.01,2013-11-15 11:46:00,
2013-11-15 06:51:00,36.4,21.4,30.25,SSE,149,1.0,1.0,54,0.00,,,0.00,VWS V14.01,2013-11-15 11:51:00,
2013-11-15 06:56:00,36.7,21.2,30.25,SSE,153,0.0,1.0,53,0.00,,,0.00,VWS V14.01,2013-11-15 11:56:00,
2013-11-15 07:01:00,37.1,21.6,30.25,SSE,158,0.0,1.0,53,0.00,,,0.00,VWS V14.01,2013-11-15 12:01:00,
2013-11-15 07:06:00,37.4,21.4,30.25,SSE,152,0.0,1.0,52,0.00,,,0.00,VWS V14.01,2013-11-15 12:06:00,
2013-11-15 07:11:00,37.5,21.5,30.25,SE,142,0.0,1.0,52,0.00,,,0.00,VWS V14.01,2013-11-15 12:11:00,
2013-11-15 07:16:00,37.6,21.6,30.25,SE,141,0.0,0.0,52,0.00,,,0.00,VWS V14.01,2013-11-15 12:16:00,
2013-11-15 07:21:00,37.9,21.9,30.25,SSE,150,1.0,1.0,52,0.00,,,0.00,VWS V14.01,2013-11-15 12:21:00,
2013-11-15 07:26:00,38.2,21.7,30.25,SSE,158,1.0,1.0,51,0.00,,,0.00,VWS V14.01,2013-11-15 12:26:00,
2013-11-15 07:31:00,38.7,21.7,30.25,SSW,193,2.0,3.0,50,0.00,,,0.00,VWS V14.01,2013-11-15 12:31:00,
2013-11-15 07:36:00,39.2,22.1,30.25,SE,131,1.0,2.0,50,0.00,,,0.00,VWS V14.01,2013-11-15 12:36:00,
2013-11-15 07:41:00,39.6,22.5,30.25,SSE,156,1.0,1.0,50,0.00,,,0.00,VWS V14.01,2013-11-15 12:41:00,
2013-11-15 07:46:00,40.0,22.9,30.25,South,169,1.0,2.0,50,0.00,,,0.00,VWS V14.01,2013-11-15 12:46:00,
2013-11-15 07:51:00,40.1,22.5,30.25,South,173,1.0,2.0,49,0.00,,,0.00,VWS V14.01,2013-11-15 12:51:00,
2013-11-15 07:56:00,40.4,22.8,30.25,SSE,165,0.0,1.0,49,0.00,,,0.00,VWS V14.01,2013-11-15 12:56:00,
2013-11-15 08:01:00,40.6,23.0,30.25,SSE,159,0.0,1.0,49,0.00,,,0.00,VWS V14.01,2013-11-15 13:01:00,
2013-11-15 08:06:00,40.7,22.5,30.26,South,183,2.0,3.0,48,0.00,,,0.00,VWS V14.01,2013-11-15 13:06:00,
2013-11-15 08:10:00,40.9,23.2,30.26,SSE,152,2.0,2.0,49,0.00,,,0.00,VWS V14.01,2013-11-15 13:10:00,
2013-11-15 08:15:00,41.1,22.9,30.26,South,172,2.0,2.0,48,0.00,,,0.00,VWS V14.01,2013-11-15 13:15:00,
2013-11-15 08:20:00,41.2,23.0,30.25,South,174,1.0,2.0,48,0.00,,,0.00,VWS V14.01,2013-11-15 13:20:00,
2013-11-15 08:25:00,41.5,23.8,30.25,SSE,159,2.0,2.0,49,0.00,,,0.00,VWS V14.01,2013-11-15 13:25:00,
2013-11-15 08:30:00,41.6,23.9,30.25,South,179,2.0,3.0,49,0.00,,,0.00,VWS V14.01,2013-11-15 13:30:00,
2013-11-15 08:35:00,41.8,23.6,30.25,SSE,159,0.0,0.0,48,0.00,,,0.00,VWS V14.01,2013-11-15 13:35:00,
2013-11-15 08:40:00,42.3,24.5,30.25,South,190,2.0,2.0,49,0.00,,,0.00,VWS V14.01,2013-11-15 13:40:00,
2013-11-15 08:45:00,42.9,25.6,30.25,SSW,193,1.0,2.0,50,0.00,,,0.00,VWS V14.01,2013-11-15 13:45:00,
2013-11-15 08:50:00,44.1,25.7,30.25,South,190,1.0,2.0,48,0.00,,,0.00,VWS V14.01,2013-11-15 13:50:00,
2013-11-15 08:55:00,45.3,27.8,30.25,SSW,200,2.0,3.0,50,0.00,,,0.00,VWS V14.01,2013-11-15 13:55:00,
2013-11-15 09:00:00,46.1,27.5,30.25,SSE,153,3.0,3.0,48,0.00,,,0.00,VWS V14.01,2013-11-15 14:00:00,
2013-11-15 09:05:00,46.3,27.7,30.25,South,178,2.0,3.0,48,0.00,,,0.00,VWS V14.01,2013-11-15 14:05:00,
2013-11-15 09:10:00,46.3,27.2,30.25,SSW,194,1.0,3.0,47,0.00,,,0.00,VWS V14.01,2013-11-15 14:10:00,
2013-11-15 09:15:00,46.3,27.2,30.25,SSE,156,2.0,5.0,47,0.00,,,0.00,VWS V14.01,2013-11-15 14:15:00,
2013-11-15 09:20:00,46.4,27.3,30.25,SSE,161,1.0,2.0,47,0.00,,,0.00,VWS V14.01,2013-11-15 14:20:00,
2013-11-15 09:25:00,46.5,27.4,30.25,SSW,203,4.0,6.0,47,0.00,,,0.00,VWS V14.01,2013-11-15 14:25:00,
2013-11-15 09:30:00,46.9,26.7,30.25,SSW,198,4.0,5.0,45,0.00,,,0.00,VWS V14.01,2013-11-15 14:30:00,
2013-11-15 09:35:00,47.2,27.5,30.25,SW,215,3.0,3.0,46,0.00,,,0.00,VWS V14.01,2013-11-15 14:35:00,
2013-11-15 09:40:00,47.4,27.7,30.25,SSE,150,4.0,4.0,46,0.00,,,0.00,VWS V14.01,2013-11-15 14:40:00,
2013-11-15 09:45:00,47.7,28.0,30.25,SSW,200,3.0,3.0,46,0.00,,,0.00,VWS V14.01,2013-11-15 14:45:00,
2013-11-15 09:50:00,47.9,27.6,30.25,SSE,156,4.0,4.0,45,0.00,,,0.00,VWS V14.01,2013-11-15 14:50:00,
2013-11-15 09:55:00,48.2,27.9,30.25,South,173,0.0,0.0,45,0.00,,,0.00,VWS V14.01,2013-11-15 14:55:00,
2013-11-15 10:00:00,48.8,29.0,30.25,SE,135,2.0,2.0,46,0.00,,,0.00,VWS V14.01,2013-11-15 15:00:00,
2013-11-15 10:05:00,49.9,30.0,30.25,South,190,5.0,6.0,46,0.00,,,0.00,VWS V14.01,2013-11-15 15:05:00,
2013-11-15 10:10:00,50.8,30.8,30.25,SSW,201,0.0,3.0,46,0.00,,,0.00,VWS V14.01,2013-11-15 15:10:00,
2013-11-15 10:15:00,51.4,29.7,30.25,SSW,201,2.0,4.0,43,0.00,,,0.00,VWS V14.01,2013-11-15 15:15:00,
2013-11-15 10:20:00,52.0,30.8,30.25,SW,233,1.0,1.0,44,0.00,,,0.00,VWS V14.01,2013-11-15 15:20:00,
2013-11-15 10:25:00,53.0,32.2,30.25,SSW,210,4.0,5.0,45,0.00,,,0.00,VWS V14.01,2013-11-15 15:25:00,
2013-11-15 10:30:00,53.6,32.2,30.25,SW,236,1.0,3.0,44,0.00,,,0.00,VWS V14.01,2013-11-15 15:30:00,
2013-11-15 10:35:00,53.7,31.8,30.25,SW,222,4.0,7.0,43,0.00,,,0.00,VWS V14.01,2013-11-15 15:35:00,
2013-11-15 10:40:00,53.4,32.6,30.25,WSW,256,0.0,0.0,45,0.00,,,0.00,VWS V14.01,2013-11-15 15:40:00,
2013-11-15 10:45:00,53.7,32.9,30.25,SSW,197,4.0,7.0,45,0.00,,,0.00,VWS V14.01,2013-11-15 15:45:00,
2013-11-15 10:50:00,53.7,32.9,30.25,South,178,2.0,2.0,45,0.00,,,0.00,VWS V14.01,2013-11-15 15:50:00,
2013-11-15 10:55:00,53.8,32.4,30.25,West,267,1.0,3.0,44,0.00,,,0.00,VWS V14.01,2013-11-15 15:55:00,
2013-11-15 11:00:00,54.3,35.0,30.24,SSE,155,2.0,2.0,48,0.00,,,0.00,VWS V14.01,2013-11-15 16:00:00,
2013-11-15 11:05:00,55.2,33.7,30.24,SW,222,4.0,4.0,44,0.00,,,0.00,VWS V14.01,2013-11-15 16:05:00,
2013-11-15 11:10:00,55.4,33.9,30.24,SSW,193,2.0,2.0,44,0.00,,,0.00,VWS V14.01,2013-11-15 16:10:00,
2013-11-15 11:15:00,55.6,34.6,30.24,SSW,205,8.0,10.0,45,0.00,,,0.00,VWS V14.01,2013-11-15 16:15:00,
2013-11-15 11:20:00,55.9,36.0,30.24,SW,228,4.0,4.0,47,0.00,,,0.00,VWS V14.01,2013-11-15 16:20:00,
2013-11-15 11:25:00,56.6,36.1,30.23,SSW,207,3.0,3.0,46,0.00,,,0.00,VWS V14.01,2013-11-15 16:25:00,
2013-11-15 11:30:00,56.2,35.7,30.23,WSW,247,3.0,3.0,46,0.00,,,0.00,VWS V14.01,2013-11-15 16:30:00,
2013-11-15 11:35:00,55.7,36.3,30.23,WSW,243,3.0,3.0,48,0.00,,,0.00,VWS V14.01,2013-11-15 16:35:00,
2013-11-15 11:40:00,55.5,36.7,30.23,WSW,242,7.0,7.0,49,0.00,,,0.00,VWS V14.01,2013-11-15 16:40:00,
2013-11-15 11:45:00,55.2,35.9,30.23,SSW,211,2.0,5.0,48,0.00,,,0.00,VWS V14.01,2013-11-15 16:45:00,
2013-11-15 11:50:00,55.4,37.1,30.23,West,277,4.0,4.0,50,0.00,,,0.00,VWS V14.01,2013-11-15 16:50:00,
2013-11-15 11:55:00,55.9,36.5,30.22,East,101,7.0,7.0,48,0.00,,,0.00,VWS V14.01,2013-11-15 16:55:00,
2013-11-15 12:00:00,56.1,36.7,30.22,SW,223,3.0,7.0,48,0.00,,,0.00,VWS V14.01,2013-11-15 17:00:00,
2013-11-15 12:05:00,56.0,37.1,30.22,SW,222,3.0,3.0,49,0.00,,,0.00,VWS V14.01,2013-11-15 17:05:00,
2013-11-15 12:10:00,56.0,37.1,30.21,South,181,5.0,7.0,49,0.00,,,0.00,VWS V14.01,2013-11-15 17:10:00,
2013-11-15 12:15:00,56.1,37.2,30.20,WSW,251,11.0,11.0,49,0.00,,,0.00,VWS V14.01,2013-11-15 17:15:00,
2013-11-15 12:20:00,55.9,37.0,30.21,SSW,204,2.0,6.0,49,0.00,,,0.00,VWS V14.01,2013-11-15 17:20:00,
2013-11-15 12:25:00,55.8,37.5,30.20,SW,233,2.0,2.0,50,0.00,,,0.00,VWS V14.01,2013-11-15 17:25:00,
2013-11-15 12:30:00,55.7,37.4,30.20,SE,144,9.0,9.0,50,0.00,,,0.00,VWS V14.01,2013-11-15 17:30:00,
2013-11-15 12:35:00,55.6,37.8,30.20,SW,214,3.0,4.0,51,0.00,,,0.00,VWS V14.01,2013-11-15 17:35:00,
2013-11-15 12:40:00,55.5,37.7,30.20,SSW,211,1.0,1.0,51,0.00,,,0.00,VWS V14.01,2013-11-15 17:40:00,
2013-11-15 12:45:00,55.6,37.8,30.20,WSW,246,1.0,1.0,51,0.00,,,0.00,VWS V14.01,2013-11-15 17:45:00,
2013-11-15 12:50:00,55.8,38.0,30.20,WSW,256,2.0,3.0,51,0.00,,,0.00,VWS V14.01,2013-11-15 17:50:00,
2013-11-15 12:55:00,55.7,38.4,30.20,WNW,289,3.0,3.0,52,0.00,,,0.00,VWS V14.01,2013-11-15 17:55:00,
2013-11-15 13:00:00,55.7,37.9,30.20,WSW,252,2.0,3.0,51,0.00,,,0.00,VWS V14.01,2013-11-15 18:00:00,
2013-11-15 13:05:00,55.7,37.9,30.20,SW,219,3.0,4.0,51,0.00,,,0.00,VWS V14.01,2013-11-15 18:05:00,
2013-11-15 13:10:00,55.6,38.3,30.19,WNW,284,5.0,6.0,52,0.00,,,0.00,VWS V14.01,2013-11-15 18:10:00,
2013-11-15 13:15:00,55.6,38.8,30.19,WSW,248,1.0,1.0,53,0.00,,,0.00,VWS V14.01,2013-11-15 18:15:00,
2013-11-15 13:20:00,55.4,38.1,30.19,WSW,238,5.0,5.0,52,0.00,,,0.00,VWS V14.01,2013-11-15 18:20:00,
2013-11-15 13:25:00,55.2,38.4,30.19,West,266,6.0,6.0,53,0.00,,,0.00,VWS V14.01,2013-11-15 18:25:00,
2013-11-15 13:30:00,55.1,38.8,30.19,SSW,212,0.0,0.0,54,0.00,,,0.00,VWS V14.01,2013-11-15 18:30:00,
2013-11-15 13:35:00,55.0,38.2,30.19,WSW,239,2.0,2.0,53,0.00,,,0.00,VWS V14.01,2013-11-15 18:35:00,
2013-11-15 13:40:00,54.9,38.1,30.19,WSW,243,1.0,2.0,53,0.00,,,0.00,VWS V14.01,2013-11-15 18:40:00,
2013-11-15 13:45:00,54.9,38.6,30.18,WSW,244,2.0,2.0,54,0.00,,,0.00,VWS V14.01,2013-11-15 18:45:00,
2013-11-15 13:50:00,54.9,38.6,30.18,WSW,257,2.0,4.0,54,0.00,,,0.00,VWS V14.01,2013-11-15 18:50:00,
2013-11-15 13:55:00,54.9,39.0,30.19,WSW,243,1.0,1.0,55,0.00,,,0.00,VWS V14.01,2013-11-15 18:55:00,
2013-11-15 14:00:00,54.8,39.0,30.18,ESE,110,1.0,2.0,55,0.00,,,0.00,VWS V14.01,2013-11-15 19:00:00,
2013-11-15 14:05:00,54.7,38.9,30.18,SW,229,1.0,3.0,55,0.00,,,0.00,VWS V14.01,2013-11-15 19:05:00,
2013-11-15 14:10:00,54.6,39.2,30.18,SW,217,0.0,0.0,56,0.00,,,0.00,VWS V14.01,2013-11-15 19:10:00,
2013-11-15 14:15:00,54.5,39.6,30.18,WSW,246,1.0,2.0,57,0.00,,,0.00,VWS V14.01,2013-11-15 19:15:00,
2013-11-15 14:20:00,54.5,39.1,30.17,WSW,256,0.0,0.0,56,0.00,,,0.00,VWS V14.01,2013-11-15 19:20:00,
2013-11-15 14:25:00,54.5,39.6,30.17,SW,215,0.0,0.0,57,0.00,,,0.00,VWS V14.01,2013-11-15 19:25:00,
2013-11-15 14:30:00,54.5,39.1,30.17,WSW,238,0.0,0.0,56,0.00,,,0.00,VWS V14.01,2013-11-15 19:30:00,
2013-11-15 14:35:00,54.6,39.7,30.17,West,259,1.0,1.0,57,0.00,,,0.00,VWS V14.01,2013-11-15 19:35:00,
2013-11-15 14:40:00,54.6,39.2,30.16,SE,144,1.0,1.0,56,0.00,,,0.00,VWS V14.01,2013-11-15 19:40:00,
2013-11-15 14:45:00,54.7,39.3,30.16,WSW,239,0.0,0.0,56,0.00,,,0.00,VWS V14.01,2013-11-15 19:45:00,
2013-11-15 14:50:00,54.9,39.5,30.16,WSW,243,1.0,2.0,56,0.00,,,0.00,VWS V14.01,2013-11-15 19:50:00,
2013-11-15 14:55:00,55.0,40.1,30.17,WSW,239,0.0,0.0,57,0.00,,,0.00,VWS V14.01,2013-11-15 19:55:00,
2013-11-15 15:00:00,55.1,39.7,30.17,SW,236,0.0,2.0,56,0.00,,,0.00,VWS V14.01,2013-11-15 20:00:00,
2013-11-15 15:05:00,55.2,39.8,30.16,WSW,242,0.0,0.0,56,0.00,,,0.00,VWS V14.01,2013-11-15 20:05:00,
2013-11-15 15:10:00,55.5,40.1,30.16,South,169,0.0,0.0,56,0.00,,,0.00,VWS V14.01,2013-11-15 20:10:00,
2013-11-15 15:15:00,55.7,39.8,30.16,WSW,252,0.0,1.0,55,0.00,,,0.00,VWS V14.01,2013-11-15 20:15:00,
2013-11-15 15:20:00,55.7,39.8,30.16,South,172,1.0,2.0,55,0.00,,,0.00,VWS V14.01,2013-11-15 20:20:00,
2013-11-15 15:25:00,55.7,40.3,30.16,SSE,167,2.0,2.0,56,0.00,,,0.00,VWS V14.01,2013-11-15 20:25:00,
2013-11-15 15:30:00,55.6,40.2,30.16,SSE,159,0.0,1.0,56,0.00,,,0.00,VWS V14.01,2013-11-15 20:30:00,
2013-11-15 15:35:00,55.6,39.7,30.15,SSE,156,0.0,1.0,55,0.00,,,0.00,VWS V14.01,2013-11-15 20:35:00,
2013-11-15 15:40:00,55.4,40.0,30.14,ESE,113,2.0,2.0,56,0.00,,,0.00,VWS V14.01,2013-11-15 20:40:00,
2013-11-15 15:45:00,55.2,40.2,30.15,SSE,149,0.0,0.0,57,0.00,,,0.00,VWS V14.01,2013-11-15 20:45:00,
2013-11-15 15:50:00,55.1,40.2,30.15,South,169,0.0,1.0,57,0.00,,,0.00,VWS V14.01,2013-11-15 20:50:00,
2013-11-15 15:55:00,55.0,39.6,30.16,South,170,2.0,2.0,56,0.00,,,0.00,VWS V14.01,2013-11-15 20:55:00,
2013-11-15 16:00:00,54.9,40.4,30.16,South,177,1.0,1.0,58,0.00,,,0.00,VWS V14.01,2013-11-15 21:00:00,
2013-11-15 16:05:00,54.7,40.2,30.16,South,190,0.0,0.0,58,0.00,,,0.00,VWS V14.01,2013-11-15 21:05:00,
2013-11-15 16:10:00,54.5,40.0,30.16,South,190,0.0,0.0,58,0.00,,,0.00,VWS V14.01,2013-11-15 21:10:00,
2013-11-15 16:15:00,54.3,39.8,30.16,South,189,0.0,0.0,58,0.00,,,0.00,VWS V14.01,2013-11-15 21:15:00,
2013-11-15 16:20:00,54.1,40.1,30.16,South,189,0.0,0.0,59,0.00,,,0.00,VWS V14.01,2013-11-15 21:20:00,
2013-11-15 16:25:00,53.9,39.9,30.16,SE,139,0.0,0.0,59,0.00,,,0.00,VWS V14.01,2013-11-15 21:25:00,
2013-11-15 16:30:00,53.7,40.2,30.15,SE,139,0.0,0.0,60,0.00,,,0.00,VWS V14.01,2013-11-15 21:30:00,
2013-11-15 16:35:00,53.4,40.3,30.16,SE,139,0.0,0.0,61,0.00,,,0.00,VWS V14.01,2013-11-15 21:35:00,
2013-11-15 16:40:00,53.2,40.1,30.15,ESE,121,0.0,0.0,61,0.00,,,0.00,VWS V14.01,2013-11-15 21:40:00,
2013-11-15 16:45:00,53.0,39.9,30.16,ESE,122,0.0,0.0,61,0.00,,,0.00,VWS V14.01,2013-11-15 21:45:00,
2013-11-15 16:50:00,52.7,39.6,30.16,ESE,122,0.0,0.0,61,0.00,,,0.00,VWS V14.01,2013-11-15 21:50:00,
2013-11-15 16:55:00,52.4,39.4,30.16,ESE,121,0.0,0.0,61,0.00,,,0.00,VWS V14.01,2013-11-15 21:55:00,
2013-11-15 17:00:00,52.1,39.9,30.16,ESE,122,0.0,0.0,63,0.00,,,0.00,VWS V14.01,2013-11-15 22:00:00,
2013-11-15 17:05:00,52.0,39.8,30.16,ESE,122,0.0,0.0,63,0.00,,,0.00,VWS V14.01,2013-11-15 22:05:00,
2013-11-15 17:10:00,51.8,41.2,30.16,ESE,121,0.0,0.0,67,0.00,,,0.00,VWS V14.01,2013-11-15 22:10:00,
2013-11-15 17:15:00,51.7,41.5,30.16,ESE,122,0.0,0.0,68,0.00,,,0.00,VWS V14.01,2013-11-15 22:15:00,
2013-11-15 17:20:00,51.5,42.0,30.16,ESE,121,0.0,0.0,70,0.00,,,0.00,VWS V14.01,2013-11-15 22:20:00,
2013-11-15 17:25:00,51.2,41.8,30.16,ESE,122,0.0,0.0,70,0.00,,,0.00,VWS V14.01,2013-11-15 22:25:00,
2013-11-15 17:30:00,51.0,42.7,30.16,ESE,121,0.0,0.0,73,0.00,,,0.00,VWS V14.01,2013-11-15 22:30:00,
2013-11-15 17:35:00,50.6,42.3,30.16,ESE,121,0.0,0.0,73,0.00,,,0.00,VWS V14.01,2013-11-15 22:35:00,
2013-11-15 17:40:00,50.2,42.6,30.16,ESE,121,0.0,0.0,75,0.00,,,0.00,VWS V14.01,2013-11-15 22:40:00,
2013-11-15 17:45:00,49.8,42.9,30.15,ESE,122,0.0,0.0,77,0.00,,,0.00,VWS V14.01,2013-11-15 22:45:00,
2013-11-15 17:50:00,49.5,42.3,30.16,ESE,122,0.0,0.0,76,0.00,,,0.00,VWS V14.01,2013-11-15 22:50:00,
2013-11-15 17:55:00,49.2,42.3,30.16,ESE,122,0.0,0.0,77,0.00,,,0.00,VWS V14.01,2013-11-15 22:55:00,
2013-11-15 18:00:00,49.0,41.8,30.16,South,186,0.0,1.0,76,0.00,,,0.00,VWS V14.01,2013-11-15 23:00:00,
2013-11-15 18:05:00,49.2,42.3,30.16,SSE,148,0.0,0.0,77,0.00,,,0.00,VWS V14.01,2013-11-15 23:05:00,
2013-11-15 18:10:00,49.2,42.3,30.16,SE,129,0.0,2.0,77,0.00,,,0.00,VWS V14.01,2013-11-15 23:10:00,
2013-11-15 18:15:00,49.2,43.0,30.16,SSE,156,0.0,0.0,79,0.00,,,0.00,VWS V14.01,2013-11-15 23:15:00,
2013-11-15 18:20:00,49.1,42.9,30.16,SSE,156,0.0,0.0,79,0.01,,,0.01,VWS V14.01,2013-11-15 23:20:00,
2013-11-15 18:25:00,49.0,42.8,30.17,SSE,153,0.0,0.0,79,0.01,,,0.01,VWS V14.01,2013-11-15 23:25:00,
2013-11-15 18:30:00,48.9,42.7,30.17,SSE,156,0.0,0.0,79,0.01,,,0.01,VWS V14.01,2013-11-15 23:30:00,
2013-11-15 18:35:00,48.7,42.8,30.17,South,183,0.0,0.0,80,0.01,,,0.01,VWS V14.01,2013-11-15 23:35:00,
2013-11-15 18:40:00,48.6,43.0,30.17,South,183,0.0,0.0,81,0.01,,,0.01,VWS V14.01,2013-11-15 23:40:00,
2013-11-15 18:45:00,48.4,42.8,30.18,SE,139,0.0,0.0,81,0.01,,,0.01,VWS V14.01,2013-11-15 23:45:00,
2013-11-15 18:50:00,48.3,43.4,30.18,SE,139,0.0,0.0,83,0.01,,,0.01,VWS V14.01,2013-11-15 23:50:00,
2013-11-15 18:55:00,48.1,43.5,30.18,SE,139,0.0,0.0,84,0.02,,,0.02,VWS V14.01,2013-11-15 23:55:00,
2013-11-15 19:00:00,47.9,43.3,30.18,SE,139,0.0,0.0,84,0.02,,,0.02,VWS V14.01,2013-11-16 00:00:00,
2013-11-15 19:05:00,47.7,43.1,30.18,SE,139,0.0,0.0,84,0.02,,,0.02,VWS V14.01,2013-11-16 00:05:00,
2013-11-15 19:10:00,47.5,43.2,30.18,SE,139,0.0,0.0,85,0.02,,,0.02,VWS V14.01,2013-11-16 00:10:00,
2013-11-15 19:15:00,47.3,43.3,30.18,SE,139,0.0,0.0,86,0.02,,,0.02,VWS V14.01,2013-11-16 00:15:00,
2013-11-15 19:20:00,47.1,43.4,30.18,SE,139,0.0,0.0,87,0.01,,,0.02,VWS V14.01,2013-11-16 00:20:00,
2013-11-15 19:25:00,46.9,43.5,30.18,SE,139,0.0,0.0,88,0.01,,,0.02,VWS V14.01,2013-11-16 00:25:00,
2013-11-15 19:30:00,46.8,43.4,30.18,SE,139,0.0,0.0,88,0.01,,,0.02,VWS V14.01,2013-11-16 00:30:00,
2013-11-15 19:35:00,46.9,43.2,30.18,SE,126,0.0,0.0,87,0.01,,,0.02,VWS V14.01,2013-11-16 00:35:00,
2013-11-15 19:40:00,47.2,43.2,30.17,East,99,0.0,1.0,86,0.01,,,0.02,VWS V14.01,2013-11-16 00:40:00,
2013-11-15 19:45:00,47.3,43.3,30.17,ESE,110,1.0,1.0,86,0.01,,,0.02,VWS V14.01,2013-11-16 00:45:00,
2013-11-15 19:50:00,47.1,43.4,30.17,ESE,114,1.0,1.0,87,0.01,,,0.02,VWS V14.01,2013-11-16 00:50:00,
2013-11-15 19:55:00,47.0,43.6,30.17,ESE,114,0.0,0.0,88,0.00,,,0.02,VWS V14.01,2013-11-16 00:55:00,
2013-11-15 20:00:00,47.0,43.6,30.17,ESE,117,0.0,0.0,88,0.00,,,0.02,VWS V14.01,2013-11-16 01:00:00,
2013-11-15 20:05:00,47.0,43.6,30.17,SE,142,0.0,0.0,88,0.01,,,0.03,VWS V14.01,2013-11-16 01:05:00,
2013-11-15 20:10:00,47.0,43.9,30.18,SE,142,0.0,0.0,89,0.01,,,0.03,VWS V14.01,2013-11-16 01:10:00,
2013-11-15 20:15:00,46.9,43.8,30.17,SE,142,0.0,0.0,89,0.01,,,0.03,VWS V14.01,2013-11-16 01:15:00,
2013-11-15 20:20:00,46.9,43.8,30.17,East,101,0.0,0.0,89,0.01,,,0.03,VWS V14.01,2013-11-16 01:20:00,
2013-11-15 20:25:00,47.0,44.2,30.17,East,101,0.0,0.0,90,0.01,,,0.03,VWS V14.01,2013-11-16 01:25:00,
2013-11-15 20:30:00,46.9,44.1,30.17,SE,124,0.0,1.0,90,0.01,,,0.03,VWS V14.01,2013-11-16 01:30:00,
2013-11-15 20:35:00,46.4,43.9,30.17,ESE,119,0.0,0.0,91,0.01,,,0.03,VWS V14.01,2013-11-16 01:35:00,
2013-11-15 20:40:00,46.1,43.9,30.17,SE,129,0.0,1.0,92,0.01,,,0.03,VWS V14.01,2013-11-16 01:40:00,
2013-11-15 20:45:00,46.1,43.9,30.17,East,101,0.0,2.0,92,0.01,,,0.03,VWS V14.01,2013-11-16 01:45:00,
2013-11-15 20:50:00,46.4,44.2,30.17,ESE,103,1.0,2.0,92,0.01,,,0.03,VWS V14.01,2013-11-16 01:50:00,
2013-11-15 20:55:00,46.7,44.5,30.17,ENE,76,0.0,0.0,92,0.01,,,0.03,VWS V14.01,2013-11-16 01:55:00,
2013-11-15 21:00:00,46.9,44.4,30.17,ENE,68,1.0,2.0,91,0.01,,,0.03,VWS V14.01,2013-11-16 02:00:00,
2013-11-15 21:05:00,47.0,44.5,30.17,ENE,78,0.0,1.0,91,0.00,,,0.03,VWS V14.01,2013-11-16 02:05:00,
2013-11-15 21:10:00,47.0,44.5,30.17,ESE,108,0.0,0.0,91,0.00,,,0.03,VWS V14.01,2013-11-16 02:10:00,
2013-11-15 21:15:00,46.9,44.4,30.17,ESE,120,0.0,0.0,91,0.00,,,0.03,VWS V14.01,2013-11-16 02:15:00,
2013-11-15 21:20:00,46.7,44.2,30.17,ESE,120,0.0,0.0,91,0.00,,,0.03,VWS V14.01,2013-11-16 02:20:00,
2013-11-15 21:25:00,46.5,44.3,30.17,ESE,115,0.0,0.0,92,0.00,,,0.03,VWS V14.01,2013-11-16 02:25:00,
2013-11-15 21:30:00,46.4,44.2,30.18,ESE,114,0.0,0.0,92,0.00,,,0.03,VWS V14.01,2013-11-16 02:30:00,
2013-11-15 21:35:00,46.3,44.1,30.18,SE,145,0.0,0.0,92,0.00,,,0.03,VWS V14.01,2013-11-16 02:35:00,
2013-11-15 21:40:00,46.3,44.4,30.18,SSE,148,0.0,0.0,93,0.00,,,0.03,VWS V14.01,2013-11-16 02:40:00,
2013-11-15 21:45:00,46.2,44.3,30.17,SE,132,1.0,2.0,93,0.00,,,0.03,VWS V14.01,2013-11-16 02:45:00,
2013-11-15 21:50:00,46.5,44.9,30.17,SE,144,2.0,2.0,94,0.00,,,0.03,VWS V14.01,2013-11-16 02:50:00,
2013-11-15 21:55:00,46.7,45.1,30.17,SSW,197,1.0,4.0,94,0.00,,,0.03,VWS V14.01,2013-11-16 02:55:00,
2013-11-15 22:00:00,47.0,45.1,30.17,SSE,150,5.0,5.0,93,0.00,,,0.03,VWS V14.01,2013-11-16 03:00:00,
2013-11-15 22:05:00,47.2,45.3,30.18,SSE,155,2.0,2.0,93,0.00,,,0.03,VWS V14.01,2013-11-16 03:05:00,
2013-11-15 22:10:00,47.3,45.4,30.18,South,179,1.0,1.0,93,0.00,,,0.03,VWS V14.01,2013-11-16 03:10:00,
2013-11-15 22:15:00,47.3,45.4,30.18,South,170,0.0,0.0,93,0.00,,,0.03,VWS V14.01,2013-11-16 03:15:00,
2013-11-15 22:20:00,47.3,45.4,30.18,ESE,110,1.0,1.0,93,0.00,,,0.03,VWS V14.01,2013-11-16 03:20:00,
2013-11-15 22:25:00,47.2,45.3,30.18,SSW,207,0.0,0.0,93,0.00,,,0.03,VWS V14.01,2013-11-16 03:25:00,
2013-11-15 22:30:00,47.2,45.3,30.18,SSE,161,0.0,1.0,93,0.00,,,0.03,VWS V14.01,2013-11-16 03:30:00,
2013-11-15 22:35:00,47.2,45.3,30.18,SSE,150,1.0,1.0,93,0.00,,,0.03,VWS V14.01,2013-11-16 03:35:00,
2013-11-15 22:40:00,47.1,45.2,30.17,SSE,153,0.0,1.0,93,0.00,,,0.03,VWS V14.01,2013-11-16 03:40:00,
2013-11-15 22:45:00,47.1,45.2,30.17,SSE,158,1.0,1.0,93,0.00,,,0.03,VWS V14.01,2013-11-16 03:45:00,
2013-11-15 22:50:00,47.2,45.3,30.17,SE,129,1.0,2.0,93,0.00,,,0.03,VWS V14.01,2013-11-16 03:50:00,
2013-11-15 22:55:00,47.2,45.3,30.17,SSE,149,0.0,0.0,93,0.00,,,0.03,VWS V14.01,2013-11-16 03:55:00,
2013-11-15 23:00:00,47.2,45.3,30.17,ESE,112,0.0,0.0,93,0.00,,,0.03,VWS V14.01,2013-11-16 04:00:00,
2013-11-15 23:05:00,47.3,45.4,30.16,ESE,107,2.0,2.0,93,0.00,,,0.03,VWS V14.01,2013-11-16 04:05:00,
2013-11-15 23:10:00,47.3,45.4,30.16,ESE,107,0.0,0.0,93,0.00,,,0.03,VWS V14.01,2013-11-16 04:10:00,
2013-11-15 23:15:00,47.3,45.4,30.16,East,99,0.0,1.0,93,0.00,,,0.03,VWS V14.01,2013-11-16 04:15:00,
2013-11-15 23:20:00,47.1,45.2,30.16,ESE,105,0.0,0.0,93,0.00,,,0.03,VWS V14.01,2013-11-16 04:20:00,
2013-11-15 23:25:00,46.9,45.0,30.16,ESE,103,0.0,0.0,93,0.00,,,0.03,VWS V14.01,2013-11-16 04:25:00,
2013-11-15 23:30:00,46.7,44.8,30.16,ESE,107,0.0,0.0,93,0.00,,,0.03,VWS V14.01,2013-11-16 04:30:00,
2013-11-15 23:35:00,46.7,45.1,30.16,SE,125,2.0,2.0,94,0.00,,,0.03,VWS V14.01,2013-11-16 04:35:00,
2013-11-15 23:39:00,46.7,45.1,30.16,ESE,108,0.0,0.0,94,0.00,,,0.03,VWS V14.01,2013-11-16 04:39:00,
2013-11-15 23:44:00,46.7,45.1,30.16,East,92,0.0,0.0,94,0.00,,,0.03,VWS V14.01,2013-11-16 04:44:00,
2013-11-15 23:49:00,46.7,45.1,30.16,East,94,0.0,0.0,94,0.00,,,0.03,VWS V14.01,2013-11-16 04:49:00,
2013-11-15 23:54:00,46.7,45.1,30.16,East,90,0.0,0.0,94,0.00,,,0.03,VWS V14.01,2013-11-16 04:54:00,
2013-11-15 23:59:00,46.7,45.1,30.16,ESE,105,0.0,0.0,94,0.00,,,0.00,VWS V14.01,2013-11-16 04:59:00,